Albany, GA

10:15 AM EST on December 15, 2019 (GMT -0500)
Southwest Georgia Regional

Weather History for KABY - November, 2019

Change the Weather History Date:

Friday, November 15, 2019

  Actual Average Record
Temperature  
Mean Temperature 49 °F 59 °F  
Max Temperature 54 °F 72 °F 86 °F (2011)
Min Temperature 44 °F 46 °F 18 °F (1969)
Degree Days  
Heating Degree Days 16    
Month to date heating degree days 146  
Since 1 July heating degree days 154  
Cooling Degree Days 0    
Month to date cooling degree days 14  
Year to date cooling degree days 3223  
Moisture  
Dew Point 45 °F    
Average Humidity 92    
Maximum Humidity 97    
Minimum Humidity 86    
Precipitation  
Precipitation 0.26 in 0.10 in 2.16 in (2006)
Month to date precipitation 1.03 1.30  
Year to date precipitation 39.65 42.93  
Sea Level Pressure  
Sea Level Pressure 30.09 in    
Wind  
Wind Speed 7 mph ()    
Max Wind Speed 16 mph    
Max Gust Speed 22 mph    
Visibility 3.4 miles    
Events Rain    
T = Trace of Precipitation, MM = Missing Value Source: Averaged Metar Reports

Daily Weather History Graph

Daily Weather History Graph

Search for Another Location

Airport or City:

Astronomy

Nov. 15, 2019 Rise Set
Actual Time 7:04 AM EST 5:37 PM EST
Civil Twilight 6:38 AM EST 6:03 PM EST
Nautical Twilight 6:09 AM EST 6:33 PM EST
Astronomical Twilight 5:40 AM EST 7:01 PM EST
Moon 8:19 PM EST 9:53 AM EST
Length of Visible Light 11h 25m
Length of Day
10h 33m
Waning Gibbous, 90% of the Moon is Illuminated
Nov 15
Waning Gibbous
Nov 19
Last Quarter
Nov 26
New
Dec 4
First Quarter
Dec 12
Full

Hourly Weather History & Observations

Time (EST) Temp. Windchill Dew Point Humidity Pressure Visibility Wind Dir Wind Speed Gust Speed Precip Events Conditions
12:27 AM 45.0 °F 41.8 °F 42.1 °F 90% 30.18 in 2.5 mi North 5.8 mph - 0.03 in Rain Light Rain
12:38 AM 45.0 °F 40.6 °F 42.1 °F 90% 30.18 in 3.0 mi NNW 8.1 mph - 0.04 in Rain Light Rain
12:48 AM 44.6 °F 41.4 °F 42.8 °F 93% 30.17 in 2.5 mi North 5.8 mph - 0.05 in Rain Rain
12:53 AM 45.0 °F 41.2 °F 42.1 °F 90% 30.17 in 2.5 mi North 6.9 mph - 0.06 in Rain Light Rain
1:01 AM 44.1 °F 40.1 °F 42.1 °F 93% 30.16 in 4.0 mi North 6.9 mph - 0.00 in Rain Light Rain
1:53 AM 45.0 °F 41.2 °F 42.1 °F 90% 30.14 in 4.0 mi NNE 6.9 mph - 0.01 in Rain Light Rain
2:53 AM 45.0 °F 41.2 °F 43.0 °F 93% 30.16 in 2.5 mi NNW 6.9 mph - 0.02 in Rain Light Rain
3:10 AM 45.0 °F 41.2 °F 43.0 °F 93% 30.15 in 3.0 mi North 6.9 mph - 0.01 in Rain Light Rain
3:20 AM 45.0 °F 40.6 °F 43.0 °F 93% 30.15 in 4.0 mi NNW 8.1 mph - 0.01 in Rain Light Rain
3:33 AM 45.0 °F 41.2 °F 43.0 °F 93% 30.13 in 4.0 mi North 6.9 mph - 0.02 in Rain Light Rain
3:53 AM 45.0 °F 40.6 °F 42.1 °F 90% 30.13 in 2.0 mi North 8.1 mph - 0.04 in Rain Rain
4:14 AM 45.0 °F 41.8 °F 42.1 °F 90% 30.12 in 3.0 mi North 5.8 mph - 0.01 in Rain Light Rain
4:34 AM 45.0 °F 40.1 °F 42.1 °F 90% 30.13 in 2.5 mi North 9.2 mph - 0.02 in Rain Light Rain
4:41 AM 45.0 °F 41.2 °F 42.1 °F 90% 30.13 in 3.0 mi North 6.9 mph - 0.03 in Rain Light Rain
4:53 AM 45.0 °F 40.6 °F 43.0 °F 93% 30.11 in 3.0 mi NNE 8.1 mph - 0.03 in Rain Light Rain
5:53 AM 45.0 °F 41.8 °F 42.1 °F 90% 30.12 in 6.0 mi NNE 5.8 mph - 0.00 in Rain Light Rain
6:53 AM 45.0 °F - 43.0 °F 93% 30.12 in 4.0 mi Calm Calm - 0.01 in Rain Light Rain
7:31 AM 46.0 °F 44.8 °F 44.1 °F 93% 30.11 in 2.5 mi North 3.5 mph - 0.01 in   Overcast
7:39 AM 46.0 °F 43.9 °F 45.0 °F 96% 30.11 in 3.0 mi North 4.6 mph - 0.01 in   Overcast
7:51 AM 46.4 °F 42.4 °F 44.6 °F 93% 30.12 in 2.5 mi NW 8.1 mph - 0.01 in   Overcast
7:53 AM 46.0 °F 42.5 °F 44.1 °F 93% 30.12 in 2.5 mi NW 6.9 mph - 0.01 in   Overcast
8:49 AM 46.4 °F 43.5 °F 44.6 °F 93% 30.10 in 3.0 mi NNE 5.8 mph - 0.00 in   Overcast
8:53 AM 46.9 °F - 44.1 °F 90% 30.10 in 3.0 mi NNW 4.6 mph - 0.00 in   Overcast
10:53 AM 48.9 °F - 46.9 °F 93% 30.10 in 1.8 mi NNW 5.8 mph - 0.01 in Rain Light Rain
11:53 AM 51.1 °F - 48.0 °F 89% 30.09 in 1.5 mi NW 8.1 mph - 0.02 in Rain Light Rain
12:53 PM 52.0 °F - 48.9 °F 89% 30.05 in 1.8 mi NNW 10.4 mph - 0.02 in Rain Light Rain
1:53 PM 52.0 °F - 48.9 °F 89% 30.04 in 1.5 mi NNW 8.1 mph - 0.00 in Rain Light Rain
2:53 PM 53.1 °F - 51.1 °F 93% 30.03 in 1.5 mi NNW 9.2 mph - 0.00 in   Overcast
3:51 PM 53.6 °F - 51.8 °F 94% 30.01 in 3.0 mi North 6.9 mph - 0.00 in   Overcast
4:13 PM 53.1 °F - 51.1 °F 93% 30.02 in 2.5 mi NNW 8.1 mph - N/A   Overcast
4:44 PM 53.1 °F - 51.1 °F 93% 30.02 in 2.0 mi North 11.5 mph - 0.01 in Rain Light Rain
4:50 PM 53.6 °F - 50.0 °F 88% 30.02 in 1.8 mi NNW 10.4 mph - 0.01 in Rain Light Rain
6:53 PM 51.1 °F - 48.0 °F 89% 30.04 in 3.0 mi North 10.4 mph - 0.00 in   Overcast
7:53 PM 50.0 °F - 48.0 °F 93% 30.05 in 3.0 mi NNW 12.7 mph 19.6 mph 0.01 in Rain Light Rain
8:00 PM 50.0 °F - 48.0 °F 93% 30.05 in 4.0 mi NNW 8.1 mph 19.6 mph 0.00 in Rain Light Rain
8:53 PM 50.0 °F - 48.0 °F 93% 30.05 in 8.0 mi North 12.7 mph 21.9 mph 0.00 in   Overcast
9:27 PM 48.9 °F - 48.0 °F 97% 30.04 in 7.0 mi North 11.5 mph 18.4 mph N/A   Overcast
9:34 PM 48.9 °F - 48.0 °F 97% 30.05 in 9.0 mi North 9.2 mph - N/A   Overcast
9:53 PM 48.9 °F - 46.0 °F 90% 30.05 in 10.0 mi NNW 11.5 mph - N/A   Overcast
10:53 PM 48.9 °F - 45.0 °F 86% 30.04 in 4.0 mi North 13.8 mph 21.9 mph 0.00 in Rain Light Rain
11:53 PM 48.0 °F - 46.0 °F 93% 30.03 in 4.0 mi North 9.2 mph - 0.01 in   Overcast